Flag for India Weather past 2 weeks in Kolkata, West Bengal, India

Now
61 °F

Fog.


Feels Like: 61 °F
Forecast: 61 / 79 °F
Wind: No wind

Location: Calcutta / Dum Dum

Current Time: Dec 20, 2014 at 11:06:10 PM

Latest Report: Dec 20, 2014 at 10:20 PM


Visibility: 1 mi

Pressure: 29.98 "Hg

Humidity: 88%

Dew point: 57 °F

Location of KolkataLocation

Historic Weather in Kolkata — Graph

°F

Kolkata temperature yesterday

Maximum temperature yesterday: 77 °F (at 12:20 PM)
Minimum temperature yesterday: 57 °F (at 12:50 AM)
Average temperature yesterday: 66 °F

Past Weeks' High & Low Weather Summary

 TemperatureHumidityPressure
High82 °F (Dec 6, 1:20 PM)100% (Dec 7, 6:20 AM)30.15 "Hg (Dec 7, 6:20 AM)
Low54 °F (Dec 8, 6:20 AM)28% (Dec 10, 12:20 PM)29.86 "Hg (Dec 6, 1:50 PM)
Average67 °F76%29.98 "Hg
* Reported Dec 5 9:50 PM — Dec 20 9:50 PM, Kolkata, Weather by CustomWeather, © 2014

Note: Actual official high and low records may vary slightly from our data, if they occured in-between our weather recording intervals... More about our weather records

Advertising

Kolkata weather history for previous 24 hours

 ConditionsComfort  
Time TempWeatherWind HumidityBarometerVisibility
9:50 PM
Dec 20
63 °FFog.No wind83%30.01 "Hg1 mi
9:20 PM63 °FHaze.No wind77%30.01 "Hg1 mi
8:50 PM63 °FHaze.No wind77%29.98 "Hg1 mi
8:20 PM63 °FHaze.No wind77%29.98 "Hg1 mi
7:50 PM64 °FHaze.No wind78%29.98 "Hg1 mi
7:20 PM66 °FHaze.No wind78%29.95 "Hg1 mi
6:50 PM68 °FHaze.No wind73%29.95 "Hg2 mi
5:50 PM70 °FHaze.No wind69%29.95 "Hg2 mi
5:20 PM72 °FHaze.No wind69%29.92 "Hg2 mi
4:20 PM73 °FHaze.6 mph57%29.92 "Hg2 mi
3:50 PM75 °FHaze.6 mph50%29.92 "Hg2 mi
3:20 PM77 °FHaze.7 mph47%29.92 "Hg2 mi
2:50 PM77 °FHaze.8 mph47%29.92 "Hg2 mi
2:20 PM77 °FHaze.8 mph44%29.92 "Hg2 mi
1:50 PM77 °FHaze.7 mph44%29.92 "Hg2 mi
12:50 PM77 °FHaze.8 mph47%29.95 "Hg2 mi
12:20 PM77 °FHaze.8 mph47%29.98 "Hg1 mi
11:50 AM75 °FHaze.8 mph50%29.98 "Hg1 mi
11:20 AM75 °FHaze.9 mph50%30.01 "Hg1 mi
10:50 AM73 °FClear.9 mph53%30.04 "Hg1 mi
10:20 AM72 °FClear.9 mph57%30.04 "Hg1 mi
9:50 AM72 °FClear.10 mph57%30.07 "Hg1 mi
9:20 AM68 °FClear.10 mph64%30.07 "Hg1 mi
8:50 AM66 °FClear.10 mph68%30.07 "Hg1 mi
8:20 AM64 °FClear.7 mph73%30.07 "Hg1 mi
7:50 AM63 °FFog.7 mph77%30.04 "Hg1 mi
7:20 AM61 °FFog.8 mph83%30.04 "Hg1 mi
6:50 AM57 °FFog.6 mph94%30.01 "Hg1 mi
6:20 AM57 °FFog.6 mph94%30.01 "Hg1 mi
5:50 AM57 °FFog.6 mph94%30.01 "Hg1 mi
5:20 AM57 °FFog.6 mph94%29.98 "Hg1 mi
4:50 AM57 °FFog.7 mph94%29.95 "Hg1 mi
4:20 AM57 °FFog.6 mph88%29.95 "Hg1 mi
3:50 AM57 °FFog.6 mph88%30.01 "Hg1 mi
3:20 AM57 °FFog.6 mph88%29.98 "Hg1 mi
2:50 AM59 °FFog.No wind88%29.98 "Hg1 mi
2:20 AM59 °FFog.No wind88%30.01 "Hg1 mi
1:50 AM59 °FFog.5 mph88%30.01 "Hg1 mi
1:20 AM59 °FFog.No wind88%30.01 "Hg1 mi
12:50 AM61 °FFog.No wind83%30.04 "Hg1 mi
12:20 AM63 °FHaze.No wind77%30.01 "Hg1 mi
11:50 PM
Dec 19
63 °FHaze.No wind77%30.01 "Hg1 mi
11:20 PM63 °FHaze.3 mph77%30.04 "Hg1 mi
Weather by CustomWeather, © 2014

See weather overviewHow to use our weather pages